Regional Weather Roundup
Issued by NWS

Home | Current Version | Previous Version | Text Only | Print | Product List | Glossary On
Versions: 1 2 3 4 5 6 7 8 9 10 11 12 13 14 15 16 17 18 19 20 21 22 23 24 25 26 27
000
ASUS45 KBOI 250110
RWRID

IDAHO REGIONAL WEATHER ROUNDUP
NATIONAL WEATHER SERVICE BOISE ID
700 PM MDT SUN SEP 24 2017

NOTE: "FAIR" INDICATES FEW OR NO CLOUDS BELOW 12000 FEET
WITH NO SIGNIFICANT WEATHER AND/OR OBSTRUCTIONS TO VISIBILITY

IDZ012-014-250200-
SOUTHWEST IDAHO


CITY           SKY/WX    TMP DP  RH WIND       PRES   REMARKS
BOISE          CLEAR     63  33  32 NW16      30.00R
CALDWELL       PTCLDY    61  36  39 W15       30.02R
MOUNTAIN HOME  CLEAR     64  31  29 NW14      30.00S
$$

IDZ016-017-250200-
SOUTHCENTRAL IDAHO


CITY           SKY/WX    TMP DP  RH WIND       PRES   REMARKS
BURLEY         FAIR      53  28  38 W7        30.04R
JEROME         CLEAR     54  31  41 SW8       30.04R
TWIN FALLS     CLEAR     53  27  36 W10       30.05R
$$

IDZ019>023-250200-
SOUTHEAST IDAHO


CITY           SKY/WX    TMP DP  RH WIND       PRES   REMARKS
IDAHO FALLS    CLOUDY    50  35  56 NW9       30.03R
POCATELLO      CLOUDY    54  33  45 SW14      30.03R
REXBURG        CLOUDY    51  31  46 NW9       30.01R
$$

IDZ006-010-011-018-031-032-250200-
CENTRAL IDAHO MOUNTAINS


CITY           SKY/WX    TMP DP  RH WIND       PRES   REMARKS
MCCALL         CLOUDY    50  32  50 N9        30.07R
HAILEY         PTCLDY    50  36  57 CALM      30.03S
STANLEY          N/A     45  23  42 N6        30.09R
SALMON         CLOUDY    52  33  48 N5        30.06S
CHALLIS        MOCLDY    48  28  46 N5        30.07R
$$

IDZ002-004-006-007-026-250200-
NORTHERN IDAHO


CITY           SKY/WX    TMP DP  RH WIND       PRES   REMARKS
LEWISTON       PTCLDY    65  41  41 SW5       30.05F
LOWELL           N/A     56  48  74 CALM      30.09R
COEUR D`ALENE  CLEAR     62  40  44 SW6       30.05F
MULLAN PASS    CLOUDY    41  33  73 VRB3      30.11S
$$




USA.gov is the U.S. government's official web portal to all federal, state and local government web resources and services.